Santa Clara, CA

3:29 PM PST on February 10, 2016 (GMT -0800)
San Jose International

Weather History for KSJC - October, 2012

Change the Weather History Date:

Wednesday, October 17, 2012

  Actual Average Record
Temperature  
Mean Temperature 67 °F 64 °F  
Max Temperature 84 °F 76 °F 94 °F (1903)
Min Temperature 50 °F 53 °F 31 °F (1893)
Degree Days  
Heating Degree Days 0 2  
Month to date heating degree days 49 23  
Since 1 July heating degree days 73 36  
Cooling Degree Days 2 1  
Month to date cooling degree days 38 35  
Year to date cooling degree days 482 718  
Growing Degree Days 18 (Base 50)    
Moisture  
Dew Point 41 °F    
Average Humidity 57    
Maximum Humidity 100    
Minimum Humidity 13    
Precipitation  
Precipitation 0.00 in 0.03 in 0.34 in (2004)
Month to date precipitation 0.11 0.34  
Year to date precipitation 5.66 10.46  
Since 1 July precipitation 0.12  
Sea Level Pressure  
Sea Level Pressure 29.87 in    
Wind  
Wind Speed 5 mph (West)    
Max Wind Speed 16 mph    
Max Gust Speed 21 mph    
Visibility 10 miles    
Events      
T = Trace of Precipitation, MM = Missing Value Source: NWS Daily Summary

Daily Weather History Graph

Daily Weather History Graph

Search for Another Location

Airport or City:

Trip Planner

Search our weather history database for the weather conditions in past years. The results will help you decide how hot, cold, wet, or windy it might be!

Date:

Astronomy

Oct. 17, 2012 Rise Set
Actual Time 7:18 AM PDT 6:27 PM PDT
Civil Twilight 6:51 AM PDT 6:53 PM PDT
Nautical Twilight 6:21 AM PDT 7:23 PM PDT
Astronomical Twilight 5:51 AM PDT 7:53 PM PDT
Moon 9:54 AM PDT (10/17) 8:12 PM PDT (10/17)
Length of Visible Light 12h 01m
Length of Day
11h 09m
Waxing Crescent, 8% of the Moon is Illuminated
Oct 17
Waxing Crescent
Oct 21
First Quarter
Oct 29
Full
Nov 6
Last Quarter
Nov 13
New

Hourly Weather History & Observations

Time (PDT) Temp. Dew Point Humidity Pressure Visibility Wind Dir Wind Speed Gust Speed Precip Events Conditions
12:53 AM 57.0 °F 57.0 °F 100% 29.90 in 10.0 mi SW 3.5 mph - N/A   Clear
1:53 AM 54.0 °F 54.0 °F 100% 29.91 in 10.0 mi Calm Calm - N/A   Clear
2:53 AM 54.0 °F 54.0 °F 100% 29.91 in 10.0 mi Calm Calm - N/A   Clear
3:53 AM 52.0 °F - N/A% 29.90 in 10.0 mi Calm Calm - N/A   Clear
4:53 AM 52.0 °F - N/A% 29.88 in 10.0 mi Calm Calm - N/A   Clear
5:53 AM 55.6 °F 54.1 °F 95% 29.89 in 10.0 mi Calm Calm - N/A   Clear
6:53 AM 53.6 °F 52.5 °F 96% 29.90 in 10.0 mi Calm Calm - N/A   Clear
7:53 AM 55.9 °F 52.0 °F 87% 29.91 in 10.0 mi South 3.5 mph - N/A   Clear
8:53 AM 57.0 °F 55.0 °F 93% 29.91 in 10.0 mi West 3.5 mph - N/A   Clear
9:53 AM 66.9 °F 48.0 °F 51% 29.91 in 10.0 mi West 5.8 mph - N/A   Clear
10:53 AM 75.0 °F 35.1 °F 23% 29.90 in 10.0 mi WNW 8.1 mph - N/A   Clear
11:53 AM 79.0 °F 32.0 °F 18% 29.88 in 10.0 mi NW 9.2 mph - N/A   Clear
12:53 PM 82.0 °F 30.0 °F 15% 29.86 in 10.0 mi West 10.4 mph - N/A   Clear
1:53 PM 82.0 °F 28.0 °F 14% 29.83 in 10.0 mi West 11.5 mph - N/A   Clear
2:53 PM 82.9 °F 28.0 °F 14% 29.82 in 10.0 mi WNW 10.4 mph - N/A   Clear
3:53 PM 84.0 °F 28.9 °F 14% 29.82 in 10.0 mi WNW 9.2 mph - N/A   Clear
4:53 PM 82.9 °F 32.0 °F 16% 29.81 in 10.0 mi WNW 11.5 mph - N/A   Clear
5:53 PM 79.0 °F 33.1 °F 19% 29.81 in 10.0 mi WNW 8.1 mph - N/A   Clear
6:53 PM 73.0 °F 33.1 °F 23% 29.82 in 10.0 mi NW 9.2 mph - N/A   Clear
7:53 PM 70.0 °F 42.1 °F 36% 29.84 in 10.0 mi West 3.5 mph - N/A   Clear
8:53 PM 70.0 °F 39.0 °F 32% 29.85 in 10.0 mi Calm Calm - N/A   Clear
9:53 PM 66.9 °F 42.1 °F 40% 29.86 in 10.0 mi Calm Calm - N/A   Clear
10:53 PM 64.0 °F 39.9 °F 41% 29.87 in 10.0 mi South 3.5 mph - N/A   Clear
11:53 PM 60.1 °F 39.9 °F 47% 29.87 in 10.0 mi Calm Calm - N/A   Clear